Time,TemperatureF,DewpointF,PressureIn,WindDirection,WindDirectionDegrees,WindSpeedMPH,WindSpeedGustMPH,Humidity,HourlyPrecipIn,Conditions,Clouds,dailyrainin,SoftwareType,DateUTC
2013-06-15 00:05:00,62.1,60.0,29.92,WSW,238,0.0,0.0,91,0.00,,,0.03,weatherlink.com 1.10,2013-06-15 04:05:00,
2013-06-15 00:21:00,61.3,59.0,29.92,WSW,238,0.0,0.0,91,0.00,,,0.00,weatherlink.com 1.10,2013-06-15 04:21:00,
2013-06-15 00:36:00,60.8,59.0,29.92,WSW,238,0.0,0.0,93,0.00,,,0.00,weatherlink.com 1.10,2013-06-15 04:36:00,
2013-06-15 00:51:00,61.2,60.0,29.92,WSW,238,0.0,0.0,95,0.00,,,0.00,weatherlink.com 1.10,2013-06-15 04:51:00,
2013-06-15 01:06:00,63.2,61.0,29.92,WSW,238,0.0,0.0,91,0.00,,,0.00,weatherlink.com 1.10,2013-06-15 05:06:00,
2013-06-15 01:21:00,63.5,61.0,29.92,WSW,238,0.0,0.0,90,0.00,,,0.00,weatherlink.com 1.10,2013-06-15 05:21:00,
2013-06-15 01:36:00,63.0,60.0,29.93,WSW,238,0.0,0.0,90,0.00,,,0.00,weatherlink.com 1.10,2013-06-15 05:36:00,
2013-06-15 01:51:00,62.2,60.0,29.93,WSW,238,0.0,0.0,92,0.00,,,0.00,weatherlink.com 1.10,2013-06-15 05:51:00,
2013-06-15 02:06:00,61.9,60.0,29.93,WSW,237,0.0,1.0,93,0.00,,,0.00,weatherlink.com 1.10,2013-06-15 06:06:00,
2013-06-15 02:21:00,61.6,60.0,29.93,WSW,237,0.0,0.0,94,0.00,,,0.00,weatherlink.com 1.10,2013-06-15 06:21:00,
2013-06-15 02:36:00,60.9,59.0,29.93,WSW,238,0.0,0.0,94,0.00,,,0.00,weatherlink.com 1.10,2013-06-15 06:36:00,
2013-06-15 02:51:00,60.9,60.0,29.94,WSW,238,0.0,0.0,95,0.00,,,0.00,weatherlink.com 1.10,2013-06-15 06:51:00,
2013-06-15 03:06:00,60.7,59.0,29.93,WSW,237,0.0,0.0,94,0.00,,,0.00,weatherlink.com 1.10,2013-06-15 07:06:00,
2013-06-15 03:21:00,60.4,59.0,29.94,WSW,238,0.0,0.0,95,0.00,,,0.00,weatherlink.com 1.10,2013-06-15 07:21:00,
2013-06-15 03:36:00,60.2,59.0,29.94,WSW,238,0.0,0.0,95,0.00,,,0.00,weatherlink.com 1.10,2013-06-15 07:36:00,
2013-06-15 03:51:00,60.1,59.0,29.94,WSW,238,0.0,0.0,95,0.00,,,0.00,weatherlink.com 1.10,2013-06-15 07:51:00,
2013-06-15 04:06:00,59.9,59.0,29.94,WSW,238,0.0,0.0,96,0.00,,,0.00,weatherlink.com 1.10,2013-06-15 08:06:00,
2013-06-15 04:21:00,59.4,58.0,29.94,WSW,238,0.0,0.0,96,0.00,,,0.00,weatherlink.com 1.10,2013-06-15 08:21:00,
2013-06-15 04:36:00,60.0,59.0,29.94,WSW,238,0.0,0.0,96,0.00,,,0.00,weatherlink.com 1.10,2013-06-15 08:36:00,
2013-06-15 04:51:00,59.6,59.0,29.94,WSW,238,0.0,0.0,96,0.00,,,0.00,weatherlink.com 1.10,2013-06-15 08:51:00,
2013-06-15 05:06:00,58.9,58.0,29.94,WSW,238,0.0,0.0,96,0.00,,,0.00,weatherlink.com 1.10,2013-06-15 09:06:00,
2013-06-15 05:21:00,58.6,58.0,29.95,WSW,238,0.0,0.0,96,0.00,,,0.00,weatherlink.com 1.10,2013-06-15 09:21:00,
2013-06-15 05:36:00,58.4,58.0,29.96,WSW,238,0.0,0.0,97,0.00,,,0.00,weatherlink.com 1.10,2013-06-15 09:36:00,
2013-06-15 05:51:00,58.8,58.0,29.96,WSW,238,0.0,0.0,97,0.00,,,0.00,weatherlink.com 1.10,2013-06-15 09:51:00,
2013-06-15 06:06:00,58.6,58.0,29.97,WSW,238,0.0,0.0,97,0.00,,,0.00,weatherlink.com 1.10,2013-06-15 10:06:00,
2013-06-15 06:21:00,58.8,58.0,29.98,WSW,238,0.0,0.0,98,0.00,,,0.00,weatherlink.com 1.10,2013-06-15 10:21:00,
2013-06-15 06:36:00,59.5,59.0,29.98,WSW,238,0.0,0.0,98,0.00,,,0.00,weatherlink.com 1.10,2013-06-15 10:36:00,
2013-06-15 06:51:00,61.5,61.0,30.00,WSW,238,0.0,1.0,98,0.00,,,0.00,weatherlink.com 1.10,2013-06-15 10:51:00,
2013-06-15 07:06:00,63.5,63.0,30.00,WSW,238,0.0,1.0,97,0.00,,,0.00,weatherlink.com 1.10,2013-06-15 11:06:00,
2013-06-15 07:21:00,65.9,64.0,30.00,SW,235,0.0,1.0,94,0.00,,,0.00,weatherlink.com 1.10,2013-06-15 11:21:00,
2013-06-15 07:37:00,69.7,65.0,30.01,SW,226,0.0,1.0,86,0.00,,,0.00,weatherlink.com 1.10,2013-06-15 11:37:00,
2013-06-15 07:52:00,71.7,65.0,30.01,WNW,303,0.0,1.0,79,0.00,,,0.00,weatherlink.com 1.10,2013-06-15 11:52:00,
2013-06-15 08:07:00,71.7,65.0,30.01,WSW,240,0.0,2.0,79,0.00,,,0.00,weatherlink.com 1.10,2013-06-15 12:07:00,
2013-06-15 08:22:00,72.3,65.0,30.02,NE,44,0.0,4.0,78,0.00,,,0.00,weatherlink.com 1.10,2013-06-15 12:22:00,
2013-06-15 08:37:00,73.3,66.0,30.03,SE,134,0.0,4.0,77,0.00,,,0.00,weatherlink.com 1.10,2013-06-15 12:37:00,
2013-06-15 08:52:00,73.9,65.0,30.03,North,8,0.0,2.0,74,0.00,,,0.00,weatherlink.com 1.10,2013-06-15 12:52:00,
2013-06-15 09:07:00,73.9,64.0,30.03,NW,319,1.0,5.0,71,0.00,,,0.00,weatherlink.com 1.10,2013-06-15 13:07:00,
2013-06-15 09:22:00,75.5,65.0,30.04,SW,218,0.0,3.0,71,0.00,,,0.00,weatherlink.com 1.10,2013-06-15 13:22:00,
2013-06-15 09:37:00,74.9,63.0,30.04,NW,321,2.0,5.0,67,0.00,,,0.00,weatherlink.com 1.10,2013-06-15 13:37:00,
2013-06-15 09:52:00,75.5,63.0,30.03,WSW,257,0.0,3.0,66,0.00,,,0.00,weatherlink.com 1.10,2013-06-15 13:52:00,
2013-06-15 10:07:00,76.6,65.0,30.02,NW,322,1.0,2.0,67,0.00,,,0.00,weatherlink.com 1.10,2013-06-15 14:07:00,
2013-06-15 10:22:00,77.6,63.0,30.03,SSW,200,0.0,3.0,62,0.00,,,0.00,weatherlink.com 1.10,2013-06-15 14:22:00,
2013-06-15 10:38:00,78.2,62.0,30.03,SW,218,0.0,3.0,58,0.00,,,0.00,weatherlink.com 1.10,2013-06-15 14:38:00,
2013-06-15 10:52:00,78.6,64.0,30.03,SSW,206,0.0,5.0,61,0.00,,,0.00,weatherlink.com 1.10,2013-06-15 14:52:00,
2013-06-15 11:07:00,78.7,61.0,30.02,SE,141,1.0,3.0,55,0.00,,,0.00,weatherlink.com 1.10,2013-06-15 15:07:00,
2013-06-15 11:22:00,78.4,63.0,30.02,West,264,0.0,6.0,60,0.00,,,0.00,weatherlink.com 1.10,2013-06-15 15:22:00,
2013-06-15 11:37:00,79.7,64.0,30.02,SSW,212,1.0,3.0,58,0.00,,,0.00,weatherlink.com 1.10,2013-06-15 15:37:00,
2013-06-15 11:52:00,80.0,62.0,30.02,NW,326,2.0,3.0,54,0.00,,,0.00,weatherlink.com 1.10,2013-06-15 15:52:00,
2013-06-15 12:07:00,80.7,61.0,30.02,NNE,26,1.0,3.0,52,0.00,,,0.00,weatherlink.com 1.10,2013-06-15 16:07:00,
2013-06-15 12:22:00,81.6,64.0,30.02,WSW,245,2.0,6.0,55,0.00,,,0.00,weatherlink.com 1.10,2013-06-15 16:22:00,
2013-06-15 12:37:00,81.2,61.0,30.01,South,171,1.0,4.0,50,0.00,,,0.00,weatherlink.com 1.10,2013-06-15 16:37:00,
2013-06-15 12:52:00,81.2,61.0,30.01,South,181,0.0,5.0,51,0.00,,,0.00,weatherlink.com 1.10,2013-06-15 16:52:00,
2013-06-15 13:07:00,80.8,61.0,30.01,ENE,65,0.0,5.0,51,0.00,,,0.00,weatherlink.com 1.10,2013-06-15 17:07:00,
2013-06-15 13:22:00,81.1,62.0,30.01,SE,145,2.0,4.0,52,0.00,,,0.00,weatherlink.com 1.10,2013-06-15 17:22:00,
2013-06-15 13:37:00,81.0,61.0,30.00,WNW,301,0.0,4.0,50,0.00,,,0.00,weatherlink.com 1.10,2013-06-15 17:37:00,
2013-06-15 13:52:00,81.9,61.0,30.00,WNW,300,2.0,3.0,49,0.00,,,0.00,weatherlink.com 1.10,2013-06-15 17:52:00,
2013-06-15 14:07:00,81.1,62.0,29.99,WNW,290,0.0,6.0,52,0.00,,,0.00,weatherlink.com 1.10,2013-06-15 18:07:00,
2013-06-15 14:22:00,81.7,61.0,29.98,SW,215,0.0,7.0,50,0.00,,,0.00,weatherlink.com 1.10,2013-06-15 18:22:00,
2013-06-15 14:38:00,82.4,63.0,29.98,WSW,239,1.0,4.0,53,0.00,,,0.00,weatherlink.com 1.10,2013-06-15 18:38:00,
2013-06-15 14:53:00,81.9,61.0,29.99,West,265,0.0,4.0,50,0.00,,,0.00,weatherlink.com 1.10,2013-06-15 18:53:00,
2013-06-15 15:08:00,82.3,64.0,29.98,West,267,0.0,4.0,54,0.00,,,0.00,weatherlink.com 1.10,2013-06-15 19:08:00,
2013-06-15 15:23:00,82.6,61.0,29.98,SW,226,1.0,3.0,48,0.00,,,0.00,weatherlink.com 1.10,2013-06-15 19:23:00,
2013-06-15 15:38:00,82.8,61.0,29.98,NE,40,0.0,3.0,47,0.00,,,0.00,weatherlink.com 1.10,2013-06-15 19:38:00,
2013-06-15 15:53:00,83.3,62.0,29.98,NE,53,0.0,3.0,49,0.00,,,0.00,weatherlink.com 1.10,2013-06-15 19:53:00,
2013-06-15 16:08:00,83.4,62.0,29.97,WNW,286,2.0,7.0,48,0.00,,,0.00,weatherlink.com 1.10,2013-06-15 20:08:00,
2013-06-15 16:23:00,82.8,60.0,29.97,SSW,207,2.0,4.0,46,0.00,,,0.00,weatherlink.com 1.10,2013-06-15 20:23:00,
2013-06-15 16:38:00,82.7,60.0,29.97,West,264,0.0,4.0,46,0.00,,,0.00,weatherlink.com 1.10,2013-06-15 20:38:00,
2013-06-15 16:53:00,82.7,60.0,29.97,SSW,210,0.0,3.0,46,0.00,,,0.00,weatherlink.com 1.10,2013-06-15 20:53:00,
2013-06-15 17:08:00,82.5,61.0,29.96,SSW,205,1.0,4.0,49,0.00,,,0.00,weatherlink.com 1.10,2013-06-15 21:08:00,
2013-06-15 17:23:00,82.4,62.0,29.96,WSW,242,1.0,4.0,50,0.00,,,0.00,weatherlink.com 1.10,2013-06-15 21:23:00,
2013-06-15 17:38:00,83.7,63.0,29.96,SW,220,0.0,2.0,49,0.00,,,0.00,weatherlink.com 1.10,2013-06-15 21:38:00,
2013-06-15 17:53:00,82.8,60.0,29.96,WSW,244,0.0,4.0,46,0.00,,,0.00,weatherlink.com 1.10,2013-06-15 21:53:00,
2013-06-15 18:08:00,80.1,61.0,29.96,WSW,241,0.0,2.0,53,0.00,,,0.00,weatherlink.com 1.10,2013-06-15 22:08:00,
2013-06-15 18:23:00,79.7,64.0,29.96,SSW,210,0.0,1.0,59,0.00,,,0.00,weatherlink.com 1.10,2013-06-15 22:23:00,
2013-06-15 18:38:00,81.0,61.0,29.96,SW,236,2.0,2.0,51,0.00,,,0.00,weatherlink.com 1.10,2013-06-15 22:38:00,
2013-06-15 18:53:00,79.7,62.0,29.96,WSW,243,0.0,1.0,55,0.00,,,0.00,weatherlink.com 1.10,2013-06-15 22:53:00,
2013-06-15 19:08:00,78.3,63.0,29.96,SW,226,0.0,1.0,59,0.00,,,0.00,weatherlink.com 1.10,2013-06-15 23:08:00,
2013-06-15 19:23:00,77.1,63.0,29.96,SW,222,0.0,2.0,62,0.00,,,0.00,weatherlink.com 1.10,2013-06-15 23:23:00,
2013-06-15 19:38:00,75.8,63.0,29.97,SW,219,0.0,0.0,65,0.00,,,0.00,weatherlink.com 1.10,2013-06-15 23:38:00,
2013-06-15 19:53:00,74.7,63.0,29.97,SW,219,0.0,0.0,67,0.00,,,0.00,weatherlink.com 1.10,2013-06-15 23:53:00,
2013-06-15 20:08:00,73.6,62.0,29.97,SW,219,0.0,0.0,68,0.00,,,0.00,weatherlink.com 1.10,2013-06-16 00:08:00,
2013-06-15 20:23:00,72.0,63.0,29.98,SW,219,0.0,0.0,72,0.00,,,0.00,weatherlink.com 1.10,2013-06-16 00:23:00,
2013-06-15 20:38:00,70.2,62.0,29.97,SW,219,0.0,0.0,74,0.00,,,0.00,weatherlink.com 1.10,2013-06-16 00:38:00,
2013-06-15 20:53:00,68.9,62.0,29.98,SW,219,0.0,0.0,79,0.00,,,0.00,weatherlink.com 1.10,2013-06-16 00:53:00,
2013-06-15 21:08:00,68.5,63.0,29.98,SW,219,0.0,0.0,82,0.00,,,0.00,weatherlink.com 1.10,2013-06-16 01:08:00,
2013-06-15 21:23:00,68.3,63.0,29.99,South,172,0.0,0.0,83,0.00,,,0.00,weatherlink.com 1.10,2013-06-16 01:23:00,
2013-06-15 21:38:00,67.7,63.0,29.99,South,172,0.0,0.0,85,0.00,,,0.00,weatherlink.com 1.10,2013-06-16 01:38:00,
2013-06-15 21:53:00,67.1,63.0,30.00,South,172,0.0,0.0,87,0.00,,,0.00,weatherlink.com 1.10,2013-06-16 01:53:00,
2013-06-15 22:08:00,66.6,63.0,30.00,South,172,0.0,0.0,89,0.00,,,0.00,weatherlink.com 1.10,2013-06-16 02:08:00,
2013-06-15 22:23:00,66.4,64.0,30.00,South,172,0.0,0.0,90,0.00,,,0.00,weatherlink.com 1.10,2013-06-16 02:23:00,
2013-06-15 22:38:00,66.7,64.0,30.00,South,172,0.0,0.0,91,0.00,,,0.00,weatherlink.com 1.10,2013-06-16 02:38:00,
2013-06-15 22:53:00,67.0,64.0,29.99,South,172,0.0,0.0,90,0.00,,,0.00,weatherlink.com 1.10,2013-06-16 02:53:00,
2013-06-15 23:08:00,67.0,64.0,29.99,South,172,0.0,0.0,91,0.00,,,0.00,weatherlink.com 1.10,2013-06-16 03:08:00,
2013-06-15 23:23:00,67.0,64.0,29.99,South,172,0.0,0.0,90,0.00,,,0.00,weatherlink.com 1.10,2013-06-16 03:23:00,
2013-06-15 23:38:00,66.9,65.0,29.99,South,172,0.0,0.0,92,0.00,,,0.00,weatherlink.com 1.10,2013-06-16 03:38:00,
2013-06-15 23:53:00,66.7,64.0,29.99,South,172,0.0,0.0,92,0.00,,,0.00,weatherlink.com 1.10,2013-06-16 03:53:00,